owner,sensor,date,latitude,longitude,air_temperature,qcFlag 
DISL,ioos:station:DISL:PPTA:1,2012-01-01T00:00:00Z,30.2791,-87.5561,15.4,11111222 
DISL,ioos:station:DISL:PPTA:1,2012-01-01T00:30:00Z,30.2791,-87.5561,15.5,11111222 
DISL,ioos:station:DISL:PPTA:1,2012-01-01T01:00:00Z,30.2791,-87.5561,15.5,11111222 
DISL,ioos:station:DISL:PPTA:1,2012-01-01T01:30:00Z,30.2791,-87.5561,15.4,11111222 
DISL,ioos:station:DISL:PPTA:1,2012-01-01T02:00:00Z,30.2791,-87.5561,15.6,11111222 
DISL,ioos:station:DISL:PPTA:1,2012-01-01T02:30:00Z,30.2791,-87.5561,15.9,11111222 
DISL,ioos:station:DISL:PPTA:1,2012-01-01T03:00:00Z,30.2791,-87.5561,16.0,11111222 
DISL,ioos:station:DISL:PPTA:1,2012-01-01T03:30:00Z,30.2791,-87.5561,15.9,11111222 
DISL,ioos:station:DISL:PPTA:1,2012-01-01T04:00:00Z,30.2791,-87.5561,15.4,11111222 
DISL,ioos:station:DISL:PPTA:1,2012-01-01T04:30:00Z,30.2791,-87.5561,15.2,11111222 
DISL,ioos:station:DISL:PPTA:1,2012-01-01T05:00:00Z,30.2791,-87.5561,16.7,11111222 
DISL,ioos:station:DISL:PPTA:1,2012-01-01T05:30:00Z,30.2791,-87.5561,17.1,11111222 
DISL,ioos:station:DISL:PPTA:1,2012-01-01T06:00:00Z,30.2791,-87.5561,17.1,11111222 
DISL,ioos:station:DISL:PPTA:1,2012-01-01T06:30:00Z,30.2791,-87.5561,17.09,1111122 
DISL,ioos:station:DISL:PPTA:1,2012-01-01T07:00:00Z,30.2791,-87.5561,17.16,1111122 
DISL,ioos:station:DISL:PPTA:1,2012-01-01T07:30:00Z,30.2791,-87.5561,17.4,1111122 
DISL,ioos:station:DISL:PPTA:1,2012-01-01T08:00:00Z,30.2791,-87.5561,17.44,1111122 
DISL,ioos:station:DISL:PPTA:1,2012-01-01T08:30:00Z,30.2791,-87.5561,17.54,1111122 
DISL,ioos:station:DISL:PPTA:1,2012-01-01T09:00:00Z,30.2791,-87.5561,17.29,1111122 
DISL,ioos:station:DISL:PPTA:1,2012-01-01T09:30:00Z,30.2791,-87.5561,17.46,1111122 
DISL,ioos:station:DISL:PPTA:1,2012-01-01T10:00:00Z,30.2791,-87.5561,17.67,1111122 
DISL,ioos:station:DISL:PPTA:1,2012-01-01T10:30:00Z,30.2791,-87.5561,17.53,1111122 
DISL,ioos:station:DISL:PPTA:1,2012-01-01T11:00:00Z,30.2791,-87.5561,17.64,1111122 
DISL,ioos:station:DISL:PPTA:1,2012-01-01T11:30:00Z,30.2791,-87.5561,17.91,1111122 
DISL,ioos:station:DISL:PPTA:1,2012-01-01T12:00:00Z,30.2791,-87.5561,18.04,1111122 
DISL,ioos:station:DISL:PPTA:1,2012-01-01T12:30:00Z,30.2791,-87.5561,17.94,1111122 
DISL,ioos:station:DISL:PPTA:1,2012-01-01T13:00:00Z,30.2791,-87.5561,17.87,1111122 
DISL,ioos:station:DISL:PPTA:1,2012-01-01T13:30:00Z,30.2791,-87.5561,18.04,1111122 
DISL,ioos:station:DISL:PPTA:1,2012-01-01T14:00:00Z,30.2791,-87.5561,18.89,1111122 
DISL,ioos:station:DISL:PPTA:1,2012-01-01T14:30:00Z,30.2791,-87.5561,19.08,1111122 
DISL,ioos:station:DISL:PPTA:1,2012-01-01T15:00:00Z,30.2791,-87.5561,19.21,1111122 
DISL,ioos:station:DISL:PPTA:1,2012-01-01T15:30:00Z,30.2791,-87.5561,19.33,1111122 
DISL,ioos:station:DISL:PPTA:1,2012-01-01T16:00:00Z,30.2791,-87.5561,19.79,1111122 
DISL,ioos:station:DISL:PPTA:1,2012-01-01T16:30:00Z,30.2791,-87.5561,19.75,1111122 
DISL,ioos:station:DISL:PPTA:1,2012-01-01T17:00:00Z,30.2791,-87.5561,19.44,1111122 
DISL,ioos:station:DISL:PPTA:1,2012-01-01T17:30:00Z,30.2791,-87.5561,20.09,1111122 
DISL,ioos:station:DISL:PPTA:1,2012-01-01T18:00:00Z,30.2791,-87.5561,20.26,1111122 
DISL,ioos:station:DISL:PPTA:1,2012-01-01T18:30:00Z,30.2791,-87.5561,20.62,1111122 
DISL,ioos:station:DISL:PPTA:1,2012-01-01T19:00:00Z,30.2791,-87.5561,19.54,1111122 
DISL,ioos:station:DISL:PPTA:1,2012-01-01T19:30:00Z,30.2791,-87.5561,19.45,1111122 
DISL,ioos:station:DISL:PPTA:1,2012-01-01T20:00:00Z,30.2791,-87.5561,20.25,1111122 
DISL,ioos:station:DISL:PPTA:1,2012-01-01T20:30:00Z,30.2791,-87.5561,20.42,1111122 
DISL,ioos:station:DISL:PPTA:1,2012-01-01T21:00:00Z,30.2791,-87.5561,21.61,1111122 
DISL,ioos:station:DISL:PPTA:1,2012-01-01T21:30:00Z,30.2791,-87.5561,20.18,1111122 
DISL,ioos:station:DISL:PPTA:1,2012-01-01T22:00:00Z,30.2791,-87.5561,20.53,1111122 
DISL,ioos:station:DISL:PPTA:1,2012-01-01T22:30:00Z,30.2791,-87.5561,19.82,1111122 
DISL,ioos:station:DISL:PPTA:1,2012-01-01T23:00:00Z,30.2791,-87.5561,19.38,1111122 
DISL,ioos:station:DISL:PPTA:1,2012-01-01T23:30:00Z,30.2791,-87.5561,18.83,1111122 
DISL,ioos:station:DISL:PPTA:1,2012-01-02T00:00:00Z,30.2791,-87.5561,18.7,1111122 
DISL,ioos:station:DISL:PPTA:1,2012-01-02T00:30:00Z,30.2791,-87.5561,19.11,1111122 
DISL,ioos:station:DISL:PPTA:1,2012-01-02T01:00:00Z,30.2791,-87.5561,18.5,1111122 
DISL,ioos:station:DISL:PPTA:1,2012-01-02T01:30:00Z,30.2791,-87.5561,17.62,1111122 
DISL,ioos:station:DISL:PPTA:1,2012-01-02T02:00:00Z,30.2791,-87.5561,16.94,1111122 
DISL,ioos:station:DISL:PPTA:1,2012-01-02T02:30:00Z,30.2791,-87.5561,16.26,1111122 
DISL,ioos:station:DISL:PPTA:1,2012-01-02T03:00:00Z,30.2791,-87.5561,15.69,1111122 
DISL,ioos:station:DISL:PPTA:1,2012-01-02T03:30:00Z,30.2791,-87.5561,15.15,1111122 
DISL,ioos:station:DISL:PPTA:1,2012-01-02T04:00:00Z,30.2791,-87.5561,14.57,1111122 
DISL,ioos:station:DISL:PPTA:1,2012-01-02T04:30:00Z,30.2791,-87.5561,13.86,1111122 
DISL,ioos:station:DISL:PPTA:1,2012-01-02T05:00:00Z,30.2791,-87.5561,13.32,1111122 
DISL,ioos:station:DISL:PPTA:1,2012-01-02T05:30:00Z,30.2791,-87.5561,12.81,1111122 
DISL,ioos:station:DISL:PPTA:1,2012-01-02T06:00:00Z,30.2791,-87.5561,12.41,1111122 
DISL,ioos:station:DISL:PPTA:1,2012-01-02T06:30:00Z,30.2791,-87.5561,11.97,1111122 
DISL,ioos:station:DISL:PPTA:1,2012-01-02T07:00:00Z,30.2791,-87.5561,11.39,1111122 
DISL,ioos:station:DISL:PPTA:1,2012-01-02T07:30:00Z,30.2791,-87.5561,11.05,1111122 
DISL,ioos:station:DISL:PPTA:1,2012-01-02T08:00:00Z,30.2791,-87.5561,10.58,1111122 
DISL,ioos:station:DISL:PPTA:1,2012-01-02T08:30:00Z,30.2791,-87.5561,10.17,1111122 
DISL,ioos:station:DISL:PPTA:1,2012-01-02T09:00:00Z,30.2791,-87.5561,9.76,1111122 
DISL,ioos:station:DISL:PPTA:1,2012-01-02T09:30:00Z,30.2791,-87.5561,9.15,1111122 
DISL,ioos:station:DISL:PPTA:1,2012-01-02T10:00:00Z,30.2791,-87.5561,9.12,1111122 
DISL,ioos:station:DISL:PPTA:1,2012-01-02T10:30:00Z,30.2791,-87.5561,8.99,1111122 
DISL,ioos:station:DISL:PPTA:1,2012-01-02T11:00:00Z,30.2791,-87.5561,8.51,1111122 
DISL,ioos:station:DISL:PPTA:1,2012-01-02T11:30:00Z,30.2791,-87.5561,8.21,1111122 
DISL,ioos:station:DISL:PPTA:1,2012-01-02T12:00:00Z,30.2791,-87.5561,7.8,1111122 
DISL,ioos:station:DISL:PPTA:1,2012-01-02T12:30:00Z,30.2791,-87.5561,7.6,1111122 
DISL,ioos:station:DISL:PPTA:1,2012-01-02T13:00:00Z,30.2791,-87.5561,7.26,1111122 
DISL,ioos:station:DISL:PPTA:1,2012-01-02T13:30:00Z,30.2791,-87.5561,7.363,1111122 
DISL,ioos:station:DISL:PPTA:1,2012-01-02T14:00:00Z,30.2791,-87.5561,7.459,1111122 
DISL,ioos:station:DISL:PPTA:1,2012-01-02T14:30:00Z,30.2791,-87.5561,7.621,1111122 
DISL,ioos:station:DISL:PPTA:1,2012-01-02T15:00:00Z,30.2791,-87.5561,7.955,1111122 
DISL,ioos:station:DISL:PPTA:1,2012-01-02T15:30:00Z,30.2791,-87.5561,8.32,1111122 
DISL,ioos:station:DISL:PPTA:1,2012-01-02T16:00:00Z,30.2791,-87.5561,8.97,1111122 
DISL,ioos:station:DISL:PPTA:1,2012-01-02T16:30:00Z,30.2791,-87.5561,9.14,1111122 
DISL,ioos:station:DISL:PPTA:1,2012-01-02T17:00:00Z,30.2791,-87.5561,9.61,1111122 
DISL,ioos:station:DISL:PPTA:1,2012-01-02T17:30:00Z,30.2791,-87.5561,10.05,1111122 
DISL,ioos:station:DISL:PPTA:1,2012-01-02T18:00:00Z,30.2791,-87.5561,10.53,1111122 
DISL,ioos:station:DISL:PPTA:1,2012-01-02T18:30:00Z,30.2791,-87.5561,11.04,1111122 
DISL,ioos:station:DISL:PPTA:1,2012-01-02T19:00:00Z,30.2791,-87.5561,11.11,1111122 
DISL,ioos:station:DISL:PPTA:1,2012-01-02T19:30:00Z,30.2791,-87.5561,11.59,1111122 
DISL,ioos:station:DISL:PPTA:1,2012-01-02T20:00:00Z,30.2791,-87.5561,12.07,1111122 
DISL,ioos:station:DISL:PPTA:1,2012-01-02T20:30:00Z,30.2791,-87.5561,12.18,1111122 
DISL,ioos:station:DISL:PPTA:1,2012-01-02T21:00:00Z,30.2791,-87.5561,12.38,1111122 
DISL,ioos:station:DISL:PPTA:1,2012-01-02T21:30:00Z,30.2791,-87.5561,12.66,1111122 
DISL,ioos:station:DISL:PPTA:1,2012-01-02T22:00:00Z,30.2791,-87.5561,12.83,1111122 
DISL,ioos:station:DISL:PPTA:1,2012-01-02T22:30:00Z,30.2791,-87.5561,12.56,1111122 
DISL,ioos:station:DISL:PPTA:1,2012-01-02T23:00:00Z,30.2791,-87.5561,11.46,1111122 
DISL,ioos:station:DISL:PPTA:1,2012-01-02T23:30:00Z,30.2791,-87.5561,10.79,1111122 
DISL,ioos:station:DISL:PPTA:1,2012-01-03T00:00:00Z,30.2791,-87.5561,10.65,1111122 
DISL,ioos:station:DISL:PPTA:1,2012-01-03T00:30:00Z,30.2791,-87.5561,10.59,1111122 
DISL,ioos:station:DISL:PPTA:1,2012-01-03T01:00:00Z,30.2791,-87.5561,10.42,1111122 
DISL,ioos:station:DISL:PPTA:1,2012-01-03T01:30:00Z,30.2791,-87.5561,10.56,1111122 
DISL,ioos:station:DISL:PPTA:1,2012-01-03T02:00:00Z,30.2791,-87.5561,10.66,1111122 
DISL,ioos:station:DISL:PPTA:1,2012-01-03T02:30:00Z,30.2791,-87.5561,10.28,1111122 
DISL,ioos:station:DISL:PPTA:1,2012-01-03T03:00:00Z,30.2791,-87.5561,9.7,1111122 
DISL,ioos:station:DISL:PPTA:1,2012-01-03T03:30:00Z,30.2791,-87.5561,9.09,1111122 
DISL,ioos:station:DISL:PPTA:1,2012-01-03T04:00:00Z,30.2791,-87.5561,8.44,1111122 
DISL,ioos:station:DISL:PPTA:1,2012-01-03T04:30:00Z,30.2791,-87.5561,7.692,1111122 
DISL,ioos:station:DISL:PPTA:1,2012-01-03T05:00:00Z,30.2791,-87.5561,7.356,1111122 
DISL,ioos:station:DISL:PPTA:1,2012-01-03T05:30:00Z,30.2791,-87.5561,6.918,1111122 
DISL,ioos:station:DISL:PPTA:1,2012-01-03T06:00:00Z,30.2791,-87.5561,6.508,1111122 
DISL,ioos:station:DISL:PPTA:1,2012-01-03T06:30:00Z,30.2791,-87.5561,6.103,1111122 
DISL,ioos:station:DISL:PPTA:1,2012-01-03T07:00:00Z,30.2791,-87.5561,5.83,1111122 
DISL,ioos:station:DISL:PPTA:1,2012-01-03T07:30:00Z,30.2791,-87.5561,5.389,1111122 
DISL,ioos:station:DISL:PPTA:1,2012-01-03T08:00:00Z,30.2791,-87.5561,4.981,1111122 
DISL,ioos:station:DISL:PPTA:1,2012-01-03T08:30:00Z,30.2791,-87.5561,4.71,1111122 
DISL,ioos:station:DISL:PPTA:1,2012-01-03T09:00:00Z,30.2791,-87.5561,4.374,1111122 
DISL,ioos:station:DISL:PPTA:1,2012-01-03T09:30:00Z,30.2791,-87.5561,3.998,1111122 
DISL,ioos:station:DISL:PPTA:1,2012-01-03T10:00:00Z,30.2791,-87.5561,3.726,1111122 
DISL,ioos:station:DISL:PPTA:1,2012-01-03T10:30:00Z,30.2791,-87.5561,3.18,1111122 
DISL,ioos:station:DISL:PPTA:1,2012-01-03T11:00:00Z,30.2791,-87.5561,2.839,1111122 
DISL,ioos:station:DISL:PPTA:1,2012-01-03T11:30:00Z,30.2791,-87.5561,2.57,1111122 
DISL,ioos:station:DISL:PPTA:1,2012-01-03T12:00:00Z,30.2791,-87.5561,2.057,1111122 
DISL,ioos:station:DISL:PPTA:1,2012-01-03T12:30:00Z,30.2791,-87.5561,1.784,1111122 
DISL,ioos:station:DISL:PPTA:1,2012-01-03T13:00:00Z,30.2791,-87.5561,1.549,1111122 
DISL,ioos:station:DISL:PPTA:1,2012-01-03T13:30:00Z,30.2791,-87.5561,1.584,1111122 
DISL,ioos:station:DISL:PPTA:1,2012-01-03T14:00:00Z,30.2791,-87.5561,2.092,1111122 
DISL,ioos:station:DISL:PPTA:1,2012-01-03T14:30:00Z,30.2791,-87.5561,2.324,1111122 
DISL,ioos:station:DISL:PPTA:1,2012-01-03T15:00:00Z,30.2791,-87.5561,2.249,1111122 
DISL,ioos:station:DISL:PPTA:1,2012-01-03T15:30:00Z,30.2791,-87.5561,2.796,1111122 
DISL,ioos:station:DISL:PPTA:1,2012-01-03T16:00:00Z,30.2791,-87.5561,2.96,1111122 
DISL,ioos:station:DISL:PPTA:1,2012-01-03T16:30:00Z,30.2791,-87.5561,3.673,1111122 
DISL,ioos:station:DISL:PPTA:1,2012-01-03T17:00:00Z,30.2791,-87.5561,3.945,1111122 
DISL,ioos:station:DISL:PPTA:1,2012-01-03T17:30:00Z,30.2791,-87.5561,4.863,1111122 
DISL,ioos:station:DISL:PPTA:1,2012-01-03T18:00:00Z,30.2791,-87.5561,5.411,1111122 
DISL,ioos:station:DISL:PPTA:1,2012-01-03T18:30:00Z,30.2791,-87.5561,5.747,1111122 
DISL,ioos:station:DISL:PPTA:1,2012-01-03T19:00:00Z,30.2791,-87.5561,6.739,1111122 
DISL,ioos:station:DISL:PPTA:1,2012-01-03T19:30:00Z,30.2791,-87.5561,7.255,1111122 
DISL,ioos:station:DISL:PPTA:1,2012-01-03T20:00:00Z,30.2791,-87.5561,7.5,1111122 
DISL,ioos:station:DISL:PPTA:1,2012-01-03T20:30:00Z,30.2791,-87.5561,7.979,1111122 
DISL,ioos:station:DISL:PPTA:1,2012-01-03T21:00:00Z,30.2791,-87.5561,8.29,1111122 
DISL,ioos:station:DISL:PPTA:1,2012-01-03T21:30:00Z,30.2791,-87.5561,8.46,1111122 
DISL,ioos:station:DISL:PPTA:1,2012-01-03T22:00:00Z,30.2791,-87.5561,8.29,1111122 
DISL,ioos:station:DISL:PPTA:1,2012-01-03T22:30:00Z,30.2791,-87.5561,7.945,1111122 
DISL,ioos:station:DISL:PPTA:1,2012-01-03T23:00:00Z,30.2791,-87.5561,7.603,1111122 
DISL,ioos:station:DISL:PPTA:1,2012-01-03T23:30:00Z,30.2791,-87.5561,7.158,1111122 
DISL,ioos:station:DISL:PPTA:1,2012-01-04T00:00:00Z,30.2791,-87.5561,6.582,1111122 
DISL,ioos:station:DISL:PPTA:1,2012-01-04T00:30:00Z,30.2791,-87.5561,6.104,1111122 
DISL,ioos:station:DISL:PPTA:1,2012-01-04T01:00:00Z,30.2791,-87.5561,5.939,1111122 
DISL,ioos:station:DISL:PPTA:1,2012-01-04T01:30:00Z,30.2791,-87.5561,5.735,1111122 
DISL,ioos:station:DISL:PPTA:1,2012-01-04T02:00:00Z,30.2791,-87.5561,5.502,1111122 
DISL,ioos:station:DISL:PPTA:1,2012-01-04T02:30:00Z,30.2791,-87.5561,4.749,1111122 
DISL,ioos:station:DISL:PPTA:1,2012-01-04T03:00:00Z,30.2791,-87.5561,4.308,1111122 
DISL,ioos:station:DISL:PPTA:1,2012-01-04T03:30:00Z,30.2791,-87.5561,4.141,1111122 
DISL,ioos:station:DISL:PPTA:1,2012-01-04T04:00:00Z,30.2791,-87.5561,3.53,1111122 
DISL,ioos:station:DISL:PPTA:1,2012-01-04T04:30:00Z,30.2791,-87.5561,3.256,1111122 
DISL,ioos:station:DISL:PPTA:1,2012-01-04T05:00:00Z,30.2791,-87.5561,3.159,1111122 
DISL,ioos:station:DISL:PPTA:1,2012-01-04T05:30:00Z,30.2791,-87.5561,3.333,1111122 
DISL,ioos:station:DISL:PPTA:1,2012-01-04T06:00:00Z,30.2791,-87.5561,3.955,1111122 
DISL,ioos:station:DISL:PPTA:1,2012-01-04T06:30:00Z,30.2791,-87.5561,4.808,1111122 
DISL,ioos:station:DISL:PPTA:1,2012-01-04T07:00:00Z,30.2791,-87.5561,4.834,1111122 
DISL,ioos:station:DISL:PPTA:1,2012-01-04T07:30:00Z,30.2791,-87.5561,3.188,1111122 
DISL,ioos:station:DISL:PPTA:1,2012-01-04T08:00:00Z,30.2791,-87.5561,2.4,1111122 
DISL,ioos:station:DISL:PPTA:1,2012-01-04T08:30:00Z,30.2791,-87.5561,4.087,1111122 
DISL,ioos:station:DISL:PPTA:1,2012-01-04T09:00:00Z,30.2791,-87.5561,4.43,1111122 
DISL,ioos:station:DISL:PPTA:1,2012-01-04T09:30:00Z,30.2791,-87.5561,4.457,1111122 
DISL,ioos:station:DISL:PPTA:1,2012-01-04T10:00:00Z,30.2791,-87.5561,4.559,1111122 
DISL,ioos:station:DISL:PPTA:1,2012-01-04T10:30:00Z,30.2791,-87.5561,4.449,1111122 
DISL,ioos:station:DISL:PPTA:1,2012-01-04T11:00:00Z,30.2791,-87.5561,4.345,1111122 
DISL,ioos:station:DISL:PPTA:1,2012-01-04T11:30:00Z,30.2791,-87.5561,3.866,1111122 
DISL,ioos:station:DISL:PPTA:1,2012-01-04T12:00:00Z,30.2791,-87.5561,3.454,1111122 
DISL,ioos:station:DISL:PPTA:1,2012-01-04T12:30:00Z,30.2791,-87.5561,3.729,1111122 
DISL,ioos:station:DISL:PPTA:1,2012-01-04T13:00:00Z,30.2791,-87.5561,3.729,1111122 
DISL,ioos:station:DISL:PPTA:1,2012-01-04T13:30:00Z,30.2791,-87.5561,4.209,1111122 
DISL,ioos:station:DISL:PPTA:1,2012-01-04T14:00:00Z,30.2791,-87.5561,5.574,1111122 
DISL,ioos:station:DISL:PPTA:1,2012-01-04T14:30:00Z,30.2791,-87.5561,6.552,1111122 
DISL,ioos:station:DISL:PPTA:1,2012-01-04T15:00:00Z,30.2791,-87.5561,6.987,1111122 
DISL,ioos:station:DISL:PPTA:1,2012-01-04T15:30:00Z,30.2791,-87.5561,7.725,1111122 
DISL,ioos:station:DISL:PPTA:1,2012-01-04T16:00:00Z,30.2791,-87.5561,7.881,1111122 
DISL,ioos:station:DISL:PPTA:1,2012-01-04T16:30:00Z,30.2791,-87.5561,8.32,1111122 
DISL,ioos:station:DISL:PPTA:1,2012-01-04T17:00:00Z,30.2791,-87.5561,8.86,1111122 
DISL,ioos:station:DISL:PPTA:1,2012-01-04T17:30:00Z,30.2791,-87.5561,9.6,1111122 
DISL,ioos:station:DISL:PPTA:1,2012-01-04T18:00:00Z,30.2791,-87.5561,9.52,1111122 
DISL,ioos:station:DISL:PPTA:1,2012-01-04T18:30:00Z,30.2791,-87.5561,9.9,1111122 
DISL,ioos:station:DISL:PPTA:1,2012-01-04T19:00:00Z,30.2791,-87.5561,11.13,1111122 
DISL,ioos:station:DISL:PPTA:1,2012-01-04T19:30:00Z,30.2791,-87.5561,11.55,1111122 
DISL,ioos:station:DISL:PPTA:1,2012-01-04T20:00:00Z,30.2791,-87.5561,11.97,1111122 
DISL,ioos:station:DISL:PPTA:1,2012-01-04T20:30:00Z,30.2791,-87.5561,13.14,1111122 
DISL,ioos:station:DISL:PPTA:1,2012-01-04T21:00:00Z,30.2791,-87.5561,12.05,1111122 
DISL,ioos:station:DISL:PPTA:1,2012-01-04T21:30:00Z,30.2791,-87.5561,12.57,1111122 
DISL,ioos:station:DISL:PPTA:1,2012-01-04T22:00:00Z,30.2791,-87.5561,12.84,1111122 
DISL,ioos:station:DISL:PPTA:1,2012-01-04T22:30:00Z,30.2791,-87.5561,12.7,1111122 
DISL,ioos:station:DISL:PPTA:1,2012-01-04T23:00:00Z,30.2791,-87.5561,12.6,1111122 
DISL,ioos:station:DISL:PPTA:1,2012-01-04T23:30:00Z,30.2791,-87.5561,12.6,1111122 
DISL,ioos:station:DISL:PPTA:1,2012-01-05T00:00:00Z,30.2791,-87.5561,12.91,1111122 
DISL,ioos:station:DISL:PPTA:1,2012-01-05T00:30:00Z,30.2791,-87.5561,13.11,1111122 
DISL,ioos:station:DISL:PPTA:1,2012-01-05T01:00:00Z,30.2791,-87.5561,13.46,1111122 
DISL,ioos:station:DISL:PPTA:1,2012-01-05T01:30:00Z,30.2791,-87.5561,13.35,1111122 
DISL,ioos:station:DISL:PPTA:1,2012-01-05T02:00:00Z,30.2791,-87.5561,13.87,1111122 
DISL,ioos:station:DISL:PPTA:1,2012-01-05T02:30:00Z,30.2791,-87.5561,12.6,1111122 
DISL,ioos:station:DISL:PPTA:1,2012-01-05T03:00:00Z,30.2791,-87.5561,12.16,1111122 
DISL,ioos:station:DISL:PPTA:1,2012-01-05T03:30:00Z,30.2791,-87.5561,13.39,1111122 
DISL,ioos:station:DISL:PPTA:1,2012-01-05T04:00:00Z,30.2791,-87.5561,13.42,1111122 
DISL,ioos:station:DISL:PPTA:1,2012-01-05T04:30:00Z,30.2791,-87.5561,13.59,1111122 
DISL,ioos:station:DISL:PPTA:1,2012-01-05T05:00:00Z,30.2791,-87.5561,12.64,1111122 
DISL,ioos:station:DISL:PPTA:1,2012-01-05T05:30:00Z,30.2791,-87.5561,11.68,1111122 
DISL,ioos:station:DISL:PPTA:1,2012-01-05T06:00:00Z,30.2791,-87.5561,11.03,1111122 
DISL,ioos:station:DISL:PPTA:1,2012-01-05T06:30:00Z,30.2791,-87.5561,10.38,1111122 
DISL,ioos:station:DISL:PPTA:1,2012-01-05T07:00:00Z,30.2791,-87.5561,9.84,1111122 
DISL,ioos:station:DISL:PPTA:1,2012-01-05T07:30:00Z,30.2791,-87.5561,9.84,1111122 
DISL,ioos:station:DISL:PPTA:1,2012-01-05T08:00:00Z,30.2791,-87.5561,9.71,1111122 
DISL,ioos:station:DISL:PPTA:1,2012-01-05T08:30:00Z,30.2791,-87.5561,10.18,1111122 
DISL,ioos:station:DISL:PPTA:1,2012-01-05T09:00:00Z,30.2791,-87.5561,9.84,1111122 
DISL,ioos:station:DISL:PPTA:1,2012-01-05T09:30:00Z,30.2791,-87.5561,9.54,1111122 
DISL,ioos:station:DISL:PPTA:1,2012-01-05T10:00:00Z,30.2791,-87.5561,9.54,1111122 
DISL,ioos:station:DISL:PPTA:1,2012-01-05T10:30:00Z,30.2791,-87.5561,9.37,1111122 
DISL,ioos:station:DISL:PPTA:1,2012-01-05T11:00:00Z,30.2791,-87.5561,9.2,1111122 
DISL,ioos:station:DISL:PPTA:1,2012-01-05T11:30:00Z,30.2791,-87.5561,9.37,1111122 
DISL,ioos:station:DISL:PPTA:1,2012-01-05T12:00:00Z,30.2791,-87.5561,9.92,1111122 
DISL,ioos:station:DISL:PPTA:1,2012-01-05T12:30:00Z,30.2791,-87.5561,9.89,1111122 
DISL,ioos:station:DISL:PPTA:1,2012-01-05T13:00:00Z,30.2791,-87.5561,10.19,1111122 
DISL,ioos:station:DISL:PPTA:1,2012-01-05T13:30:00Z,30.2791,-87.5561,11.01,1111122 
DISL,ioos:station:DISL:PPTA:1,2012-01-05T14:00:00Z,30.2791,-87.5561,11.92,1111122 
DISL,ioos:station:DISL:PPTA:1,2012-01-05T14:30:00Z,30.2791,-87.5561,13.34,1111122 
DISL,ioos:station:DISL:PPTA:1,2012-01-05T15:00:00Z,30.2791,-87.5561,13.94,1111122 
DISL,ioos:station:DISL:PPTA:1,2012-01-05T15:30:00Z,30.2791,-87.5561,15.36,1111122 
DISL,ioos:station:DISL:PPTA:1,2012-01-05T16:00:00Z,30.2791,-87.5561,16.47,1111122 
DISL,ioos:station:DISL:PPTA:1,2012-01-05T16:30:00Z,30.2791,-87.5561,16.52,1111122 
DISL,ioos:station:DISL:PPTA:1,2012-01-05T17:00:00Z,30.2791,-87.5561,16.95,1111122 
DISL,ioos:station:DISL:PPTA:1,2012-01-05T17:30:00Z,30.2791,-87.5561,17.8,1111122 
DISL,ioos:station:DISL:PPTA:1,2012-01-05T18:00:00Z,30.2791,-87.5561,18.44,1111122 
DISL,ioos:station:DISL:PPTA:1,2012-01-05T18:30:00Z,30.2791,-87.5561,17.98,1111122 
DISL,ioos:station:DISL:PPTA:1,2012-01-05T19:00:00Z,30.2791,-87.5561,17.94,1111122 
DISL,ioos:station:DISL:PPTA:1,2012-01-05T19:30:00Z,30.2791,-87.5561,17.65,1111122 
DISL,ioos:station:DISL:PPTA:1,2012-01-05T20:00:00Z,30.2791,-87.5561,17.77,1111122 
DISL,ioos:station:DISL:PPTA:1,2012-01-05T20:30:00Z,30.2791,-87.5561,17.5,1111122 
DISL,ioos:station:DISL:PPTA:1,2012-01-05T21:00:00Z,30.2791,-87.5561,17.41,1111122 
DISL,ioos:station:DISL:PPTA:1,2012-01-05T21:30:00Z,30.2791,-87.5561,17.31,1111122 
DISL,ioos:station:DISL:PPTA:1,2012-01-05T22:00:00Z,30.2791,-87.5561,16.84,1111122 
DISL,ioos:station:DISL:PPTA:1,2012-01-05T22:30:00Z,30.2791,-87.5561,16.4,1111122 
DISL,ioos:station:DISL:PPTA:1,2012-01-05T23:00:00Z,30.2791,-87.5561,15.97,1111122 
DISL,ioos:station:DISL:PPTA:1,2012-01-05T23:30:00Z,30.2791,-87.5561,15.73,1111122 
DISL,ioos:station:DISL:PPTA:1,2012-01-06T00:00:00Z,30.2791,-87.5561,15.74,1111122 
DISL,ioos:station:DISL:PPTA:1,2012-01-06T00:30:00Z,30.2791,-87.5561,15.57,1111122 
DISL,ioos:station:DISL:PPTA:1,2012-01-06T01:00:00Z,30.2791,-87.5561,15.51,1111122 
DISL,ioos:station:DISL:PPTA:1,2012-01-06T01:30:00Z,30.2791,-87.5561,15.64,1111122 
DISL,ioos:station:DISL:PPTA:1,2012-01-06T02:00:00Z,30.2791,-87.5561,15.81,1111122 
DISL,ioos:station:DISL:PPTA:1,2012-01-06T02:30:00Z,30.2791,-87.5561,15.88,1111122 
DISL,ioos:station:DISL:PPTA:1,2012-01-06T03:00:00Z,30.2791,-87.5561,15.54,1111122 
DISL,ioos:station:DISL:PPTA:1,2012-01-06T03:30:00Z,30.2791,-87.5561,14.89,1111122 
DISL,ioos:station:DISL:PPTA:1,2012-01-06T04:00:00Z,30.2791,-87.5561,14.04,1111122 
DISL,ioos:station:DISL:PPTA:1,2012-01-06T04:30:00Z,30.2791,-87.5561,12.98,1111122 
DISL,ioos:station:DISL:PPTA:1,2012-01-06T05:00:00Z,30.2791,-87.5561,12.34,1111122 
DISL,ioos:station:DISL:PPTA:1,2012-01-06T05:30:00Z,30.2791,-87.5561,11.66,1111122 
DISL,ioos:station:DISL:PPTA:1,2012-01-06T06:00:00Z,30.2791,-87.5561,10.95,1111122 
DISL,ioos:station:DISL:PPTA:1,2012-01-06T06:30:00Z,30.2791,-87.5561,10.34,1111122 
DISL,ioos:station:DISL:PPTA:1,2012-01-06T07:00:00Z,30.2791,-87.5561,10.27,1111122 
DISL,ioos:station:DISL:PPTA:1,2012-01-06T07:30:00Z,30.2791,-87.5561,10.44,1111122 
DISL,ioos:station:DISL:PPTA:1,2012-01-06T08:00:00Z,30.2791,-87.5561,10.58,1111122 
DISL,ioos:station:DISL:PPTA:1,2012-01-06T08:30:00Z,30.2791,-87.5561,10.55,1111122 
DISL,ioos:station:DISL:PPTA:1,2012-01-06T09:00:00Z,30.2791,-87.5561,10.41,1111122 
DISL,ioos:station:DISL:PPTA:1,2012-01-06T09:30:00Z,30.2791,-87.5561,10.27,1111122 
DISL,ioos:station:DISL:PPTA:1,2012-01-06T10:00:00Z,30.2791,-87.5561,10.68,1111122 
DISL,ioos:station:DISL:PPTA:1,2012-01-06T10:30:00Z,30.2791,-87.5561,10.82,1111122 
DISL,ioos:station:DISL:PPTA:1,2012-01-06T11:00:00Z,30.2791,-87.5561,10.92,1111122 
DISL,ioos:station:DISL:PPTA:1,2012-01-06T11:30:00Z,30.2791,-87.5561,10.99,1111122 
DISL,ioos:station:DISL:PPTA:1,2012-01-06T12:00:00Z,30.2791,-87.5561,10.96,1111122 
DISL,ioos:station:DISL:PPTA:1,2012-01-06T12:30:00Z,30.2791,-87.5561,10.58,1111122 
DISL,ioos:station:DISL:PPTA:1,2012-01-06T13:00:00Z,30.2791,-87.5561,10.41,1111122 
DISL,ioos:station:DISL:PPTA:1,2012-01-06T13:30:00Z,30.2791,-87.5561,10.21,1111122 
DISL,ioos:station:DISL:PPTA:1,2012-01-06T14:00:00Z,30.2791,-87.5561,10.75,1111122 
DISL,ioos:station:DISL:PPTA:1,2012-01-06T14:30:00Z,30.2791,-87.5561,12.39,1111122 
DISL,ioos:station:DISL:PPTA:1,2012-01-06T15:00:00Z,30.2791,-87.5561,12.3,1111122 
DISL,ioos:station:DISL:PPTA:1,2012-01-06T15:30:00Z,30.2791,-87.5561,13.08,1111122 
DISL,ioos:station:DISL:PPTA:1,2012-01-06T16:00:00Z,30.2791,-87.5561,13.61,1111122 
DISL,ioos:station:DISL:PPTA:1,2012-01-06T16:30:00Z,30.2791,-87.5561,14.86,1111122 
DISL,ioos:station:DISL:PPTA:1,2012-01-06T17:00:00Z,30.2791,-87.5561,15.64,1111122 
DISL,ioos:station:DISL:PPTA:1,2012-01-06T17:30:00Z,30.2791,-87.5561,15.79,1111122 
DISL,ioos:station:DISL:PPTA:1,2012-01-06T18:00:00Z,30.2791,-87.5561,15.86,1111122 
DISL,ioos:station:DISL:PPTA:1,2012-01-06T18:30:00Z,30.2791,-87.5561,16.2,1111122 
DISL,ioos:station:DISL:PPTA:1,2012-01-06T19:00:00Z,30.2791,-87.5561,16.78,1111122 
DISL,ioos:station:DISL:PPTA:1,2012-01-06T19:30:00Z,30.2791,-87.5561,16.65,1111122 
DISL,ioos:station:DISL:PPTA:1,2012-01-06T20:00:00Z,30.2791,-87.5561,17.44,1111122 
DISL,ioos:station:DISL:PPTA:1,2012-01-06T20:30:00Z,30.2791,-87.5561,18.74,1111122 
DISL,ioos:station:DISL:PPTA:1,2012-01-06T21:00:00Z,30.2791,-87.5561,18.47,1111122 
DISL,ioos:station:DISL:PPTA:1,2012-01-06T21:30:00Z,30.2791,-87.5561,18.07,1111122 
DISL,ioos:station:DISL:PPTA:1,2012-01-06T22:00:00Z,30.2791,-87.5561,17.76,1111122 
DISL,ioos:station:DISL:PPTA:1,2012-01-06T22:30:00Z,30.2791,-87.5561,18.0,1111122 
DISL,ioos:station:DISL:PPTA:1,2012-01-06T23:00:00Z,30.2791,-87.5561,16.97,1111122 
DISL,ioos:station:DISL:PPTA:1,2012-01-06T23:30:00Z,30.2791,-87.5561,16.3,1111122 
DISL,ioos:station:DISL:PPTA:1,2012-01-07T00:00:00Z,30.2791,-87.5561,16.51,1111122 